Погода в Варденисе

Армения     40°11′04″N   45°43′37″E
темп.,
°C
ветер,
м/с
пор.,
м/с
влажн.,
%
обл.,
%
осадки,
мм/ч
давл.,
гПа
погр.,
м
6 декабря, пн
пн601:00−3ссв227816 0.0 102014
04:00−4св22803 0.0 102115
07:00−6св12803 0.0 102412
10:00−1всв11700 0.0 102338
13:00+2сз11610 0.0 1021130
16:00+2ссз11670 0.0 102222
19:00−4всв22705 0.0 102812
22:00−4всв22765 0.0 102813
7 декабря, вт
вт701:00−4св22725 0.0 102913
04:00−4св226816 0.0 102913
07:00−4св226763 0.0 102913
10:000св11607 0.0 102624
13:00+4сз11513 0.0 1022113
16:00+3зсз11570 0.0 102117
19:00−2всв12570 0.0 102512
22:00−2всв1157100 0.0 102511
8 декабря, ср
ср801:00−2св1156100 0.0 102311
04:00−1св1156100 0.0 102213
07:00−2всв22536 0.0 102219
10:00+3вюв0144100 0.0 101814
13:00+6з11390 0.0 1016153
16:00+5сз11530 0.0 101516
19:00+1вюв33550 0.0 101617
22:00+1вюв12413 0.0 101612
9 декабря, чт
чт901:00+1зсз11415 0.0 101516
04:000вюв11506 0.0 101514
07:000юв2266100 0.0 101520
10:00+1з2367100 0.0 101497
13:00+1з2478100 0.8 1015553
16:00+2з3674100 1.1 1015676
19:00−1зюз237591 0.8 1020100
22:00−2ююз117752 0.8 102334
10 декабря, пт
пт1001:00−4всв128812 0.0 102630
04:00−4всв12888 0.0 102720
07:00−5св12875 0.0 102816
10:00−2ссв01743 0.0 102892
13:00+1зсз22662 0.0 1025397
16:00+1сз11672 0.0 1024207
19:00−3ссв12782 0.0 102715
22:00−3ссв12782 0.0 102817